When you browse on this site, cookies collect data to enhance your experience and personalize the content and advertising you see.
Visit our Privacy Policy to learn more. By continuing to use the site, you agree to this use of cookies and data.
  • In Romania
  • List of Countries
  • For 7 days
  • Water Temperature
  • Weather Map
  • Weather Widgets
  • user-avatar
    Login

    Hourly Weather Saint-Maximin-la-Sainte-Baume

    Today, 1 June, Monday

    Time Temperature Precipitation Wind Pressure Humidity
    00:00 +15°C° 0 mm 1 mps 735 mmHg 74%
    01:00 +15°C° 0 mm 1 mps 735 mmHg 75%
    02:00 +15°C° 0 mm 1 mps 735 mmHg 76%
    03:00 +15°C° 0 mm 1 mps 734 mmHg 78%
    04:00 +16°C° 0 mm 1 mps 735 mmHg 74%
    05:00 +18°C° 0 mm 1 mps 735 mmHg 70%
    06:00 +19°C° 0 mm 1 mps 736 mmHg 66%
    07:00 +21°C° 0 mm 1 mps 736 mmHg 61%
    08:00 +21°C° 0 mm 2 mps 736 mmHg 55%
    09:00 +24°C° 0 mm 2 mps 736 mmHg 50%
    10:00 +25°C° 0.1 mm 3 mps 737 mmHg 48%
    11:00 +25°C° 0.1 mm 3 mps 737 mmHg 47%
    12:00 +26°C° 0.1 mm 3 mps 737 mmHg 45%
    13:00 +25°C° 0.2 mm 3 mps 737 mmHg 47%
    14:00 +25°C° 0.2 mm 3 mps 737 mmHg 48%
    15:00 +24°C° 0.2 mm 2 mps 736 mmHg 50%
    16:00 +24°C° 0.1 mm 2 mps 736 mmHg 53%
    17:00 +23°C° 0.1 mm 2 mps 736 mmHg 56%
    18:00 +22°C° 0.1 mm 1 mps 736 mmHg 60%
    19:00 +21°C° 0 mm 1 mps 736 mmHg 63%
    20:00 +20°C° 0 mm 1 mps 736 mmHg 65%
    21:00 +18°C° 0 mm 1 mps 737 mmHg 68%
    22:00 +18°C° 0 mm 1 mps 736 mmHg 70%
    23:00 +18°C° 0 mm 1 mps 736 mmHg 71%

    Tomorrow, 2 June, Tuesday

    Time Temperature Precipitation Wind Pressure Humidity
    00:00 +16°C° 0 mm 1 mps 736 mmHg 73%
    01:00 +16°C° 0 mm 1 mps 735 mmHg 73%
    02:00 +16°C° 0 mm 1 mps 735 mmHg 74%
    03:00 +16°C° 0 mm 1 mps 735 mmHg 74%
    04:00 +18°C° 0 mm 1 mps 735 mmHg 73%
    05:00 +19°C° 0 mm 1 mps 735 mmHg 71%
    06:00 +18°C° 0 mm 2 mps 735 mmHg 70%
    07:00 +20°C° 0 mm 2 mps 735 mmHg 62%
    08:00 +21°C° 0 mm 2 mps 735 mmHg 55%
    09:00 +24°C° 0 mm 2 mps 736 mmHg 47%
    10:00 +25°C° 0 mm 3 mps 735 mmHg 45%
    11:00 +26°C° 0 mm 3 mps 735 mmHg 43%
    12:00 +27°C° 0 mm 4 mps 735 mmHg 41%
    13:00 +27°C° 0 mm 4 mps 735 mmHg 42%
    14:00 +27°C° 0 mm 4 mps 734 mmHg 43%
    15:00 +26°C° 0 mm 5 mps 734 mmHg 44%
    16:00 +25°C° 0 mm 4 mps 733 mmHg 48%
    17:00 +23°C° 0 mm 4 mps 733 mmHg 52%
    18:00 +22°C° 0 mm 4 mps 732 mmHg 55%
    19:00 +21°C° 0 mm 3 mps 732 mmHg 62%
    20:00 +19°C° 0 mm 3 mps 732 mmHg 68%
    21:00 +18°C° 0 mm 2 mps 732 mmHg 75%
    22:00 +17°C° 0 mm 2 mps 732 mmHg 78%
    23:00 +17°C° 0 mm 2 mps 732 mmHg 81%

    Day after tomorrow, 3 June, Wednesday

    Time Temperature Precipitation Wind Pressure Humidity
    00:00 +16°C° 0 mm 1 mps 731 mmHg 85%
    01:00 +16°C° 0 mm 1 mps 731 mmHg 86%
    02:00 +16°C° 0 mm 1 mps 731 mmHg 87%
    03:00 +16°C° 0 mm 1 mps 730 mmHg 88%
    04:00 +18°C° 0 mm 1 mps 730 mmHg 84%
    05:00 +19°C° 0 mm 1 mps 730 mmHg 80%
    06:00 +19°C° 0 mm 1 mps 730 mmHg 76%
    07:00 +21°C° 0 mm 1 mps 730 mmHg 69%
    08:00 +23°C° 0 mm 1 mps 730 mmHg 61%
    09:00 +25°C° 0 mm 2 mps 730 mmHg 53%
    10:00 +25°C° 0.3 mm 3 mps 730 mmHg 53%
    11:00 +26°C° 0.3 mm 3 mps 730 mmHg 53%
    12:00 +26°C° 0.3 mm 4 mps 730 mmHg 52%
    13:00 +26°C° 0.2 mm 4 mps 729 mmHg 53%
    14:00 +25°C° 0.2 mm 4 mps 729 mmHg 54%
    15:00 +25°C° 0.2 mm 4 mps 729 mmHg 55%
    16:00 +23°C° 0.1 mm 4 mps 728 mmHg 59%
    17:00 +22°C° 0.1 mm 3 mps 728 mmHg 63%
    18:00 +21°C° 0.1 mm 2 mps 728 mmHg 67%
    19:00 +20°C° 0 mm 2 mps 728 mmHg 72%
    20:00 +19°C° 0 mm 2 mps 728 mmHg 77%
    21:00 +18°C° 0 mm 2 mps 728 mmHg 82%
    22:00 +18°C° 0.4 mm 2 mps 727 mmHg 84%
    23:00 +19°C° 0.4 mm 1 mps 727 mmHg 85%

    4 June, Thursday

    Time Temperature Precipitation Wind Pressure Humidity
    00:00 +19°C° 0.4 mm 1 mps 727 mmHg 87%
    01:00 +18°C° 0.8 mm 1 mps 726 mmHg 88%
    02:00 +18°C° 0.8 mm 1 mps 726 mmHg 88%
    03:00 +18°C° 0.8 mm 1 mps 725 mmHg 89%
    04:00 +18°C° 0.7 mm 1 mps 725 mmHg 90%
    05:00 +18°C° 0.7 mm 1 mps 724 mmHg 91%
    06:00 +18°C° 0.7 mm 1 mps 724 mmHg 92%
    07:00 +18°C° 0.6 mm 1 mps 724 mmHg 91%
    08:00 +19°C° 0.6 mm 1 mps 724 mmHg 90%
    09:00 +18°C° 0.6 mm 2 mps 724 mmHg 90%
    10:00 +18°C° 1 mm 2 mps 724 mmHg 88%
    11:00 +18°C° 1 mm 3 mps 724 mmHg 86%
    12:00 +18°C° 1 mm 4 mps 724 mmHg 84%
    13:00 +18°C° 0.4 mm 3 mps 724 mmHg 83%
    14:00 +18°C° 0.4 mm 3 mps 723 mmHg 82%
    15:00 +17°C° 0.4 mm 3 mps 723 mmHg 80%
    16:00 +17°C° 0.3 mm 3 mps 723 mmHg 80%
    17:00 +17°C° 0.3 mm 4 mps 723 mmHg 80%
    18:00 +17°C° 0.3 mm 4 mps 723 mmHg 80%
    19:00 +15°C° 0.4 mm 4 mps 723 mmHg 79%
    20:00 +15°C° 0.4 mm 4 mps 723 mmHg 79%
    21:00 +15°C° 0.4 mm 4 mps 723 mmHg 79%
    22:00 +14°C° 0 mm 4 mps 723 mmHg 79%
    23:00 +14°C° 0 mm 5 mps 723 mmHg 79%

    5 June, Friday

    Time Temperature Precipitation Wind Pressure Humidity
    00:00 +14°C° 0 mm 5 mps 722 mmHg 79%
    01:00 +14°C° 0 mm 7 mps 722 mmHg 78%
    02:00 +12°C° 0 mm 8 mps 722 mmHg 78%
    03:00 +12°C° 0 mm 9 mps 722 mmHg 77%
    04:00 +12°C° 0 mm 9 mps 723 mmHg 70%
    05:00 +13°C° 0 mm 10 mps 723 mmHg 64%
    06:00 +13°C° 0 mm 11 mps 724 mmHg 57%
    07:00 +14°C° 0 mm 11 mps 724 mmHg 53%
    08:00 +15°C° 0 mm 12 mps 725 mmHg 50%
    09:00 +17°C° 0 mm 12 mps 725 mmHg 46%
    10:00 +17°C° 0 mm 12 mps 725 mmHg 43%
    11:00 +18°C° 0 mm 12 mps 725 mmHg 40%
    12:00 +19°C° 0 mm 13 mps 726 mmHg 37%
    13:00 +19°C° 0 mm 13 mps 726 mmHg 37%
    14:00 +19°C° 0 mm 12 mps 726 mmHg 38%
    15:00 +19°C° 0 mm 12 mps 726 mmHg 38%
    16:00 +19°C° 0 mm 12 mps 726 mmHg 40%
    17:00 +18°C° 0 mm 11 mps 726 mmHg 42%
    18:00 +17°C° 0 mm 10 mps 726 mmHg 44%
    19:00 +16°C° 0 mm 9 mps 727 mmHg 45%
    20:00 +16°C° 0 mm 8 mps 728 mmHg 46%
    21:00 +15°C° 0 mm 7 mps 729 mmHg 48%
    22:00 +14°C° 0 mm 6 mps 729 mmHg 51%
    23:00 +14°C° 0 mm 5 mps 729 mmHg 54%

    6 June, Saturday

    Time Temperature Precipitation Wind Pressure Humidity
    00:00 +13°C° 0 mm 4 mps 729 mmHg 57%
    01:00 +12°C° 0 mm 4 mps 730 mmHg 59%
    02:00 +12°C° 0 mm 3 mps 730 mmHg 62%
    03:00 +11°C° 0 mm 3 mps 730 mmHg 64%
    04:00 +13°C° 0 mm 2 mps 730 mmHg 61%
    05:00 +14°C° 0 mm 2 mps 731 mmHg 58%
    06:00 +15°C° 0 mm 2 mps 731 mmHg 55%
    07:00 +18°C° 0 mm 2 mps 731 mmHg 49%
    08:00 +22°C° 0 mm 1 mps 731 mmHg 43%
    09:00 +24°C° 0 mm 1 mps 732 mmHg 37%
    10:00 +25°C° 0 mm 2 mps 732 mmHg 36%
    11:00 +26°C° 0 mm 2 mps 732 mmHg 35%
    12:00 +27°C° 0 mm 3 mps 732 mmHg 33%
    13:00 +27°C° 0 mm 3 mps 732 mmHg 35%
    14:00 +26°C° 0 mm 3 mps 732 mmHg 38%
    15:00 +26°C° 0 mm 4 mps 732 mmHg 40%
    16:00 +25°C° 0 mm 3 mps 732 mmHg 45%
    17:00 +24°C° 0 mm 3 mps 731 mmHg 50%
    18:00 +23°C° 0 mm 2 mps 731 mmHg 56%
    19:00 +20°C° 0 mm 2 mps 732 mmHg 61%
    20:00 +19°C° 0 mm 1 mps 732 mmHg 67%
    21:00 +18°C° 0 mm 1 mps 732 mmHg 73%
    22:00 +16°C° 0 mm 1 mps 732 mmHg 75%
    23:00 +16°C° 0 mm 1 mps 732 mmHg 76%
    Show more